Data supplied by UK-AIR on 17/3/2021
All Data GMT hour ending 
Status: R =Ratified P=Provisional,P*=As supplied
,,Chesterfield Roadside,,,,,,,,,,,,,,,,,,,,,,,
Date,time,"PM<sub>10</sub> particulate matter (Hourly measured)",status,unit,"Nitric oxide",status,unit,"Nitrogen dioxide",status,unit,"Nitrogen oxides as nitrogen dioxide",status,unit,"PM<sub>2.5</sub> particulate matter (Hourly measured)",status,unit
 
01-01-2020,01:00,32.525,R,ugm-3 (FIDAS),7.28829,R,ugm-3,23.81065,R,ugm-3,34.98588,R,ugm-3,26.014,R,ugm-3 (Ref.eq)
01-01-2020,02:00,34.200,R,ugm-3 (FIDAS),0.78557,R,ugm-3,19.00806,R,ugm-3,20.21257,R,ugm-3,27.382,R,ugm-3 (Ref.eq)
01-01-2020,03:00,38.025,R,ugm-3 (FIDAS),1.57113,R,ugm-3,18.64293,R,ugm-3,21.05196,R,ugm-3,30.283,R,ugm-3 (Ref.eq)
01-01-2020,04:00,38.725,R,ugm-3 (FIDAS),3.17499,R,ugm-3,19.86025,R,ugm-3,24.72850,R,ugm-3,32.618,R,ugm-3 (Ref.eq)
01-01-2020,05:00,21.800,R,ugm-3 (FIDAS),1.01469,R,ugm-3,11.48833,R,ugm-3,13.04416,R,ugm-3,17.877,R,ugm-3 (Ref.eq)
01-01-2020,06:00,17.425,R,ugm-3 (FIDAS),1.37474,R,ugm-3,8.56917,R,ugm-3,10.67707,R,ugm-3,14.340,R,ugm-3 (Ref.eq)
01-01-2020,07:00,18.875,R,ugm-3 (FIDAS),1.40747,R,ugm-3,9.62698,R,ugm-3,11.78507,R,ugm-3,15.826,R,ugm-3 (Ref.eq)
01-01-2020,08:00,19.200,R,ugm-3 (FIDAS),6.57910,R,ugm-3,21.69158,R,ugm-3,31.77940,R,ugm-3,16.156,R,ugm-3 (Ref.eq)
01-01-2020,09:00,19.350,R,ugm-3 (FIDAS),7.92111,R,ugm-3,21.74914,R,ugm-3,33.89467,R,ugm-3,15.377,R,ugm-3 (Ref.eq)
01-01-2020,10:00,23.725,R,ugm-3 (FIDAS),7.26647,R,ugm-3,20.23472,R,ugm-3,31.37649,R,ugm-3,19.434,R,ugm-3 (Ref.eq)
01-01-2020,11:00,30.925,R,ugm-3 (FIDAS),5.56442,R,ugm-3,17.80815,R,ugm-3,26.34014,R,ugm-3,25.967,R,ugm-3 (Ref.eq)
01-01-2020,12:00,36.325,R,ugm-3 (FIDAS),10.44146,R,ugm-3,18.43865,R,ugm-3,34.44867,R,ugm-3,30.236,R,ugm-3 (Ref.eq)
01-01-2020,13:00,40.400,R,ugm-3 (FIDAS),10.31054,R,ugm-3,21.96340,R,ugm-3,37.77266,R,ugm-3,33.962,R,ugm-3 (Ref.eq)
01-01-2020,14:00,38.625,R,ugm-3 (FIDAS),10.31054,R,ugm-3,21.96340,R,ugm-3,37.77266,R,ugm-3,32.547,R,ugm-3 (Ref.eq)
01-01-2020,15:00,35.800,R,ugm-3 (FIDAS),9.32858,R,ugm-3,16.61960,R,ugm-3,30.92322,R,ugm-3,28.986,R,ugm-3 (Ref.eq)
01-01-2020,16:00,29.525,R,ugm-3 (FIDAS),12.33991,R,ugm-3,19.55682,R,ugm-3,38.47775,R,ugm-3,22.925,R,ugm-3 (Ref.eq)
01-01-2020,17:00,28.225,R,ugm-3 (FIDAS),10.70332,R,ugm-3,18.49042,R,ugm-3,34.90194,R,ugm-3,22.712,R,ugm-3 (Ref.eq)
01-01-2020,18:00,29.400,R,ugm-3 (FIDAS),6.87369,R,ugm-3,14.54154,R,ugm-3,25.08105,R,ugm-3,24.528,R,ugm-3 (Ref.eq)
01-01-2020,19:00,30.425,R,ugm-3 (FIDAS),5.49895,R,ugm-3,13.77872,R,ugm-3,22.21033,R,ugm-3,25.896,R,ugm-3 (Ref.eq)
01-01-2020,20:00,24.175,R,ugm-3 (FIDAS),3.76416,R,ugm-3,11.60379,R,ugm-3,17.37542,R,ugm-3,21.321,R,ugm-3 (Ref.eq)
01-01-2020,21:00,23.125,R,ugm-3 (FIDAS),3.30592,R,ugm-3,12.75969,R,ugm-3,17.82870,R,ugm-3,20.755,R,ugm-3 (Ref.eq)
01-01-2020,22:00,24.400,R,ugm-3 (FIDAS),1.47293,R,ugm-3,13.25351,R,ugm-3,15.51197,R,ugm-3,21.793,R,ugm-3 (Ref.eq)
01-01-2020,23:00,22.500,R,ugm-3 (FIDAS),1.11288,R,ugm-3,13.35230,R,ugm-3,15.05870,R,ugm-3,20.613,R,ugm-3 (Ref.eq)
01-01-2020,24:00,20.325,R,ugm-3 (FIDAS),0.52371,R,ugm-3,11.38497,R,ugm-3,12.18798,R,ugm-3,18.656,R,ugm-3 (Ref.eq)
02-01-2020,01:00,17.675,R,ugm-3 (FIDAS),0.45826,R,ugm-3,9.87859,R,ugm-3,10.58125,R,ugm-3,16.109,R,ugm-3 (Ref.eq)
02-01-2020,02:00,14.100,R,ugm-3 (FIDAS),0.69830,R,ugm-3,7.46147,R,ugm-3,8.53218,R,ugm-3,12.665,R,ugm-3 (Ref.eq)
02-01-2020,03:00,9.975,R,ugm-3 (FIDAS),0.39279,R,ugm-3,4.43641,R,ugm-3,5.03869,R,ugm-3,8.208,R,ugm-3 (Ref.eq)
02-01-2020,04:00,8.250,R,ugm-3 (FIDAS),0.55646,R,ugm-3,4.48779,R,ugm-3,5.34101,R,ugm-3,6.792,R,ugm-3 (Ref.eq)
02-01-2020,05:00,9.500,R,ugm-3 (FIDAS),0.58919,R,ugm-3,5.04224,R,ugm-3,5.94565,R,ugm-3,7.830,R,ugm-3 (Ref.eq)
02-01-2020,06:00,9.475,R,ugm-3 (FIDAS),1.24385,R,ugm-3,6.10431,R,ugm-3,8.01151,R,ugm-3,7.571,R,ugm-3 (Ref.eq)
02-01-2020,07:00,9.000,R,ugm-3 (FIDAS),4.25526,R,ugm-3,20.53311,R,ugm-3,27.05775,R,ugm-3,7.028,R,ugm-3 (Ref.eq)
02-01-2020,08:00,8.650,R,ugm-3 (FIDAS),4.32073,R,ugm-3,9.24685,R,ugm-3,15.87187,R,ugm-3,6.580,R,ugm-3 (Ref.eq)
02-01-2020,09:00,9.550,R,ugm-3 (FIDAS),9.88530,R,ugm-3,16.43533,R,ugm-3,31.59257,R,ugm-3,6.604,R,ugm-3 (Ref.eq)
02-01-2020,10:00,10.425,R,ugm-3 (FIDAS),8.18319,R,ugm-3,13.60340,R,ugm-3,26.15079,R,ugm-3,6.958,R,ugm-3 (Ref.eq)
02-01-2020,11:00,11.275,R,ugm-3 (FIDAS),7.85587,R,ugm-3,17.02774,R,ugm-3,29.07323,R,ugm-3,6.462,R,ugm-3 (Ref.eq)
02-01-2020,12:00,11.025,R,ugm-3 (FIDAS),9.91803,R,ugm-3,16.38514,R,ugm-3,31.59257,R,ugm-3,5.802,R,ugm-3 (Ref.eq)
02-01-2020,13:00,10.600,R,ugm-3 (FIDAS),17.97029,R,ugm-3,15.27478,R,ugm-3,42.82885,R,ugm-3,5.802,R,ugm-3 (Ref.eq)
02-01-2020,14:00,9.625,R,ugm-3 (FIDAS),9.42704,R,ugm-3,13.76206,R,ugm-3,28.21665,R,ugm-3,5.024,R,ugm-3 (Ref.eq)
02-01-2020,15:00,8.525,R,ugm-3 (FIDAS),11.19461,R,ugm-3,15.78819,R,ugm-3,32.95302,R,ugm-3,4.363,R,ugm-3 (Ref.eq)
02-01-2020,16:00,9.625,R,ugm-3 (FIDAS),6.25196,R,ugm-3,11.62667,R,ugm-3,21.21288,R,ugm-3,5.755,R,ugm-3 (Ref.eq)
02-01-2020,17:00,8.025,R,ugm-3 (FIDAS),5.72824,R,ugm-3,16.15833,R,ugm-3,24.94151,R,ugm-3,4.599,R,ugm-3 (Ref.eq)
02-01-2020,18:00,6.725,R,ugm-3 (FIDAS),4.87718,R,ugm-3,10.10678,R,ugm-3,17.58502,R,ugm-3,4.505,R,ugm-3 (Ref.eq)
02-01-2020,19:00,7.750,R,ugm-3 (FIDAS),2.81502,R,ugm-3,11.95866,R,ugm-3,16.27496,R,ugm-3,4.835,R,ugm-3 (Ref.eq)
02-01-2020,20:00,7.750,R,ugm-3 (FIDAS),2.65135,R,ugm-3,10.49645,R,ugm-3,14.56181,R,ugm-3,4.646,R,ugm-3 (Ref.eq)
02-01-2020,21:00,6.700,R,ugm-3 (FIDAS),1.80030,R,ugm-3,7.72005,R,ugm-3,10.48047,R,ugm-3,4.835,R,ugm-3 (Ref.eq)
02-01-2020,22:00,3.975,R,ugm-3 (FIDAS),1.57117,R,ugm-3,5.19932,R,ugm-3,7.60842,R,ugm-3,3.090,R,ugm-3 (Ref.eq)
02-01-2020,23:00,4.000,R,ugm-3 (FIDAS),0.75285,R,ugm-3,5.44632,R,ugm-3,6.60068,R,ugm-3,3.278,R,ugm-3 (Ref.eq)
02-01-2020,24:00,4.250,R,ugm-3 (FIDAS),0.49099,R,ugm-3,4.48739,R,ugm-3,5.24024,R,ugm-3,3.467,R,ugm-3 (Ref.eq)
03-01-2020,01:00,4.025,R,ugm-3 (FIDAS),0.81834,R,ugm-3,3.38297,R,ugm-3,4.63774,R,ugm-3,3.066,R,ugm-3 (Ref.eq)
03-01-2020,02:00,3.725,R,ugm-3 (FIDAS),0.78561,R,ugm-3,3.70201,R,ugm-3,4.90659,R,ugm-3,2.618,R,ugm-3 (Ref.eq)
03-01-2020,03:00,3.750,R,ugm-3 (FIDAS),1.17841,R,ugm-3,4.54481,R,ugm-3,6.35169,R,ugm-3,2.571,R,ugm-3 (Ref.eq)
03-01-2020,04:00,5.050,R,ugm-3 (FIDAS),1.08021,R,ugm-3,4.04005,R,ugm-3,5.69635,R,ugm-3,3.137,R,ugm-3 (Ref.eq)
03-01-2020,05:00,3.450,R,ugm-3 (FIDAS),1.47302,R,ugm-3,6.10950,R,ugm-3,8.36809,R,ugm-3,2.382,R,ugm-3 (Ref.eq)
03-01-2020,06:00,4.400,R,ugm-3 (FIDAS),0.78561,R,ugm-3,4.18931,R,ugm-3,5.39389,R,ugm-3,3.491,R,ugm-3 (Ref.eq)
03-01-2020,07:00,7.450,R,ugm-3 (FIDAS),0.72014,R,ugm-3,4.49133,R,ugm-3,5.59553,R,ugm-3,5.826,R,ugm-3 (Ref.eq)
03-01-2020,08:00,6.950,R,ugm-3 (FIDAS),1.24388,R,ugm-3,5.50305,R,ugm-3,7.41030,R,ugm-3,4.033,R,ugm-3 (Ref.eq)
03-01-2020,09:00,7.325,R,ugm-3 (FIDAS),1.24388,R,ugm-3,6.15838,R,ugm-3,8.06563,R,ugm-3,4.057,R,ugm-3 (Ref.eq)
03-01-2020,10:00,12.575,R,ugm-3 (FIDAS),3.07697,R,ugm-3,9.54814,R,ugm-3,14.26609,R,ugm-3,8.302,R,ugm-3 (Ref.eq)
03-01-2020,11:00,9.575,R,ugm-3 (FIDAS),5.59746,R,ugm-3,12.23676,R,ugm-3,20.81942,R,ugm-3,4.953,R,ugm-3 (Ref.eq)
03-01-2020,12:00,12.350,R,ugm-3 (FIDAS),7.56148,R,ugm-3,17.39176,R,ugm-3,28.98587,R,ugm-3,6.344,R,ugm-3 (Ref.eq)
03-01-2020,13:00,13.275,R,ugm-3 (FIDAS),9.13270,R,ugm-3,18.05762,R,ugm-3,32.06089,R,ugm-3,6.792,R,ugm-3 (Ref.eq)
03-01-2020,14:00,13.750,R,ugm-3 (FIDAS),8.18342,R,ugm-3,16.08526,R,ugm-3,28.63300,R,ugm-3,6.722,R,ugm-3 (Ref.eq)
03-01-2020,15:00,11.800,R,ugm-3 (FIDAS),9.00176,R,ugm-3,20.62766,R,ugm-3,34.43017,R,ugm-3,5.778,R,ugm-3 (Ref.eq)
03-01-2020,16:00,15.100,R,ugm-3 (FIDAS),6.71041,R,ugm-3,14.61350,R,ugm-3,24.90264,R,ugm-3,7.429,R,ugm-3 (Ref.eq)
03-01-2020,17:00,12.725,R,ugm-3 (FIDAS),5.95753,R,ugm-3,14.40682,R,ugm-3,23.54157,R,ugm-3,6.297,R,ugm-3 (Ref.eq)
03-01-2020,18:00,15.450,R,ugm-3 (FIDAS),7.03774,R,ugm-3,19.60630,R,ugm-3,30.39736,R,ugm-3,7.359,R,ugm-3 (Ref.eq)
03-01-2020,19:00,17.900,R,ugm-3 (FIDAS),9.46004,R,ugm-3,22.74796,R,ugm-3,37.25314,R,ugm-3,8.632,R,ugm-3 (Ref.eq)
03-01-2020,20:00,13.950,R,ugm-3 (FIDAS),2.29136,R,ugm-3,11.71052,R,ugm-3,15.22388,R,ugm-3,7.429,R,ugm-3 (Ref.eq)
03-01-2020,21:00,17.550,R,ugm-3 (FIDAS),2.12769,R,ugm-3,11.35655,R,ugm-3,14.61896,R,ugm-3,8.868,R,ugm-3 (Ref.eq)
03-01-2020,22:00,18.825,R,ugm-3 (FIDAS),0.94928,R,ugm-3,9.63471,R,ugm-3,11.09025,R,ugm-3,11.698,R,ugm-3 (Ref.eq)
03-01-2020,23:00,12.550,R,ugm-3 (FIDAS),1.40755,R,ugm-3,5.65537,R,ugm-3,7.81358,R,ugm-3,7.736,R,ugm-3 (Ref.eq)
03-01-2020,24:00,8.975,R,ugm-3 (FIDAS),0.91654,R,ugm-3,5.55126,R,ugm-3,6.95661,R,ugm-3,5.307,R,ugm-3 (Ref.eq)
04-01-2020,01:00,7.900,R,ugm-3 (FIDAS),0.74198,R,ugm-3,5.31780,R,ugm-3,6.45549,R,ugm-3,5.094,R,ugm-3 (Ref.eq)
04-01-2020,02:00,6.950,R,ugm-3 (FIDAS),0.65469,R,ugm-3,4.64471,R,ugm-3,5.64856,R,ugm-3,4.245,R,ugm-3 (Ref.eq)
04-01-2020,03:00,6.100,R,ugm-3 (FIDAS),0.65469,R,ugm-3,2.82910,R,ugm-3,3.83295,R,ugm-3,3.420,R,ugm-3 (Ref.eq)
04-01-2020,04:00,6.450,R,ugm-3 (FIDAS),0.19641,R,ugm-3,2.67443,R,ugm-3,2.97558,R,ugm-3,3.797,R,ugm-3 (Ref.eq)
04-01-2020,05:00,6.050,R,ugm-3 (FIDAS),0.49102,R,ugm-3,3.18093,R,ugm-3,3.93382,R,ugm-3,3.255,R,ugm-3 (Ref.eq)
04-01-2020,06:00,6.325,R,ugm-3 (FIDAS),1.27665,R,ugm-3,3.74149,R,ugm-3,5.69899,R,ugm-3,3.373,R,ugm-3 (Ref.eq)
04-01-2020,07:00,5.850,R,ugm-3 (FIDAS),1.11298,R,ugm-3,5.65676,R,ugm-3,7.36330,R,ugm-3,3.491,R,ugm-3 (Ref.eq)
04-01-2020,08:00,6.100,R,ugm-3 (FIDAS),2.09502,R,ugm-3,7.83263,R,ugm-3,11.04495,R,ugm-3,4.080,R,ugm-3 (Ref.eq)
04-01-2020,09:00,6.150,R,ugm-3 (FIDAS),2.68424,R,ugm-3,8.59348,R,ugm-3,12.70925,R,ugm-3,3.774,R,ugm-3 (Ref.eq)
04-01-2020,10:00,6.450,R,ugm-3 (FIDAS),3.33893,R,ugm-3,10.91824,R,ugm-3,16.03787,R,ugm-3,4.057,R,ugm-3 (Ref.eq)
04-01-2020,11:00,7.600,R,ugm-3 (FIDAS),4.38644,R,ugm-3,13.75024,R,ugm-3,20.47602,R,ugm-3,4.458,R,ugm-3 (Ref.eq)
04-01-2020,12:00,6.400,R,ugm-3 (FIDAS),10.57328,R,ugm-3,18.68788,R,ugm-3,34.90001,R,ugm-3,3.160,R,ugm-3 (Ref.eq)
04-01-2020,13:00,6.400,R,ugm-3 (FIDAS),12.07907,R,ugm-3,18.95114,R,ugm-3,37.47212,R,ugm-3,3.042,R,ugm-3 (Ref.eq)
04-01-2020,14:00,5.175,R,ugm-3 (FIDAS),6.25231,R,ugm-3,12.95705,R,ugm-3,22.54379,R,ugm-3,2.736,R,ugm-3 (Ref.eq)
04-01-2020,15:00,5.375,R,ugm-3 (FIDAS),11.42438,R,ugm-3,11.88562,R,ugm-3,29.40275,R,ugm-3,2.642,R,ugm-3 (Ref.eq)
04-01-2020,16:00,7.150,R,ugm-3 (FIDAS),11.58805,R,ugm-3,21.77180,R,ugm-3,39.53989,R,ugm-3,3.561,R,ugm-3 (Ref.eq)
04-01-2020,17:00,7.850,R,ugm-3 (FIDAS),7.75810,R,ugm-3,22.60095,R,ugm-3,34.49654,R,ugm-3,4.009,R,ugm-3 (Ref.eq)
04-01-2020,18:00,9.825,R,ugm-3 (FIDAS),12.70103,R,ugm-3,24.25124,R,ugm-3,43.72588,R,ugm-3,6.156,R,ugm-3 (Ref.eq)
04-01-2020,19:00,10.025,R,ugm-3 (FIDAS),9.32936,R,ugm-3,23.21773,R,ugm-3,37.52255,R,ugm-3,6.840,R,ugm-3 (Ref.eq)
04-01-2020,20:00,16.700,R,ugm-3 (FIDAS),9.32936,R,ugm-3,18.88045,R,ugm-3,33.18527,R,ugm-3,12.830,R,ugm-3 (Ref.eq)
04-01-2020,21:00,8.175,R,ugm-3 (FIDAS),4.15730,R,ugm-3,12.84075,R,ugm-3,19.21518,R,ugm-3,5.495,R,ugm-3 (Ref.eq)
04-01-2020,22:00,7.375,R,ugm-3 (FIDAS),3.24073,R,ugm-3,11.16969,R,ugm-3,16.13873,R,ugm-3,4.882,R,ugm-3 (Ref.eq)
04-01-2020,23:00,6.775,R,ugm-3 (FIDAS),2.35689,R,ugm-3,8.79280,R,ugm-3,12.40665,R,ugm-3,5.000,R,ugm-3 (Ref.eq)
04-01-2020,24:00,4.950,R,ugm-3 (FIDAS),1.96408,R,ugm-3,6.26823,R,ugm-3,9.27977,R,ugm-3,3.679,R,ugm-3 (Ref.eq)
05-01-2020,01:00,3.300,R,ugm-3 (FIDAS),0.85112,R,ugm-3,5.65801,R,ugm-3,6.96305,R,ugm-3,2.476,R,ugm-3 (Ref.eq)
05-01-2020,02:00,5.300,R,ugm-3 (FIDAS),0.48012,R,ugm-3,5.52048,R,ugm-3,6.25665,R,ugm-3,4.245,R,ugm-3 (Ref.eq)
05-01-2020,03:00,4.675,R,ugm-3 (FIDAS),0.49103,R,ugm-3,4.49461,R,ugm-3,5.24751,R,ugm-3,3.349,R,ugm-3 (Ref.eq)
05-01-2020,04:00,4.900,R,ugm-3 (FIDAS),0.58924,R,ugm-3,4.34403,R,ugm-3,5.24751,R,ugm-3,3.656,R,ugm-3 (Ref.eq)
05-01-2020,05:00,3.625,R,ugm-3 (FIDAS),0.65471,R,ugm-3,4.04181,R,ugm-3,5.04569,R,ugm-3,2.759,R,ugm-3 (Ref.eq)
05-01-2020,06:00,2.825,R,ugm-3 (FIDAS),0.52377,R,ugm-3,4.84807,R,ugm-3,5.65117,R,ugm-3,2.075,R,ugm-3 (Ref.eq)
05-01-2020,07:00,2.800,R,ugm-3 (FIDAS),0.72018,R,ugm-3,4.59736,R,ugm-3,5.70163,R,ugm-3,1.981,R,ugm-3 (Ref.eq)
05-01-2020,08:00,2.600,R,ugm-3 (FIDAS),1.30942,R,ugm-3,4.70301,R,ugm-3,6.71076,R,ugm-3,1.745,R,ugm-3 (Ref.eq)
05-01-2020,09:00,2.750,R,ugm-3 (FIDAS),1.37489,R,ugm-3,5.86405,R,ugm-3,7.97219,R,ugm-3,1.675,R,ugm-3 (Ref.eq)
05-01-2020,10:00,3.250,R,ugm-3 (FIDAS),4.15741,R,ugm-3,8.05606,R,ugm-3,14.43066,R,ugm-3,2.075,R,ugm-3 (Ref.eq)
05-01-2020,11:00,4.675,R,ugm-3 (FIDAS),5.79419,R,ugm-3,11.80302,R,ugm-3,20.68732,R,ugm-3,3.514,R,ugm-3 (Ref.eq)
05-01-2020,12:00,4.575,R,ugm-3 (FIDAS),9.10047,R,ugm-3,16.06797,R,ugm-3,30.02184,R,ugm-3,2.193,R,ugm-3 (Ref.eq)
05-01-2020,13:00,8.500,R,ugm-3 (FIDAS),10.04980,R,ugm-3,11.18128,R,ugm-3,26.59077,R,ugm-3,4.906,R,ugm-3 (Ref.eq)
05-01-2020,14:00,5.575,R,ugm-3 (FIDAS),7.79105,R,ugm-3,12.47501,R,ugm-3,24.42112,R,ugm-3,2.995,R,ugm-3 (Ref.eq)
05-01-2020,15:00,5.725,R,ugm-3 (FIDAS),8.05294,R,ugm-3,13.63762,R,ugm-3,25.98529,R,ugm-3,3.184,R,ugm-3 (Ref.eq)
05-01-2020,16:00,6.250,R,ugm-3 (FIDAS),8.38029,R,ugm-3,13.38797,R,ugm-3,26.23757,R,ugm-3,3.797,R,ugm-3 (Ref.eq)
05-01-2020,17:00,7.225,R,ugm-3 (FIDAS),7.39823,R,ugm-3,14.03601,R,ugm-3,25.37980,R,ugm-3,4.764,R,ugm-3 (Ref.eq)
05-01-2020,18:00,6.450,R,ugm-3 (FIDAS),5.59777,R,ugm-3,12.45738,R,ugm-3,21.04051,R,ugm-3,4.599,R,ugm-3 (Ref.eq)
05-01-2020,19:00,5.725,R,ugm-3 (FIDAS),5.07401,R,ugm-3,10.68718,R,ugm-3,18.46721,R,ugm-3,3.939,R,ugm-3 (Ref.eq)
05-01-2020,20:00,4.275,R,ugm-3 (FIDAS),3.63364,R,ugm-3,9.56555,R,ugm-3,15.13706,R,ugm-3,2.877,R,ugm-3 (Ref.eq)
05-01-2020,21:00,3.750,R,ugm-3 (FIDAS),2.09507,R,ugm-3,8.99816,R,ugm-3,12.21056,R,ugm-3,2.618,R,ugm-3 (Ref.eq)
05-01-2020,22:00,4.000,R,ugm-3 (FIDAS),1.60404,R,ugm-3,5.41178,R,ugm-3,7.87127,R,ugm-3,2.712,R,ugm-3 (Ref.eq)
05-01-2020,23:00,3.900,R,ugm-3 (FIDAS),1.17848,R,ugm-3,3.99556,R,ugm-3,5.80254,R,ugm-3,2.736,R,ugm-3 (Ref.eq)
05-01-2020,24:00,7.225,R,ugm-3 (FIDAS),0.75292,R,ugm-3,3.58849,R,ugm-3,4.74295,R,ugm-3,5.755,R,ugm-3 (Ref.eq)
06-01-2020,01:00,11.175,R,ugm-3 (FIDAS),1.04757,R,ugm-3,5.73021,R,ugm-3,7.33646,R,ugm-3,8.561,R,ugm-3 (Ref.eq)
06-01-2020,02:00,9.575,R,ugm-3 (FIDAS),0.48013,R,ugm-3,4.64836,R,ugm-3,5.38455,R,ugm-3,7.594,R,ugm-3 (Ref.eq)
06-01-2020,03:00,5.075,R,ugm-3 (FIDAS),0.49105,R,ugm-3,3.23501,R,ugm-3,3.98794,R,ugm-3,3.632,R,ugm-3 (Ref.eq)
06-01-2020,04:00,4.300,R,ugm-3 (FIDAS),0.94936,R,ugm-3,2.88564,R,ugm-3,4.34130,R,ugm-3,2.948,R,ugm-3 (Ref.eq)
06-01-2020,05:00,5.300,R,ugm-3 (FIDAS),1.34219,R,ugm-3,3.29290,R,ugm-3,5.35090,R,ugm-3,3.420,R,ugm-3 (Ref.eq)
06-01-2020,06:00,6.925,R,ugm-3 (FIDAS),1.66956,R,ugm-3,4.10343,R,ugm-3,6.66339,R,ugm-3,4.481,R,ugm-3 (Ref.eq)
06-01-2020,07:00,8.450,R,ugm-3 (FIDAS),5.56519,R,ugm-3,9.43777,R,ugm-3,17.97095,R,ugm-3,4.882,R,ugm-3 (Ref.eq)
06-01-2020,08:00,8.725,R,ugm-3 (FIDAS),5.56519,R,ugm-3,11.60842,R,ugm-3,20.14160,R,ugm-3,5.000,R,ugm-3 (Ref.eq)
06-01-2020,09:00,10.625,R,ugm-3 (FIDAS),11.13039,R,ugm-3,16.95730,R,ugm-3,34.02365,R,ugm-3,5.660,R,ugm-3 (Ref.eq)
06-01-2020,10:00,9.950,R,ugm-3 (FIDAS),8.11864,R,ugm-3,15.56811,R,ugm-3,28.01651,R,ugm-3,5.425,R,ugm-3 (Ref.eq)
06-01-2020,11:00,9.500,R,ugm-3 (FIDAS),5.85982,R,ugm-3,12.21675,R,ugm-3,21.20168,R,ugm-3,5.849,R,ugm-3 (Ref.eq)
06-01-2020,12:00,10.500,R,ugm-3 (FIDAS),7.03833,R,ugm-3,12.68133,R,ugm-3,23.47329,R,ugm-3,6.132,R,ugm-3 (Ref.eq)
06-01-2020,13:00,11.950,R,ugm-3 (FIDAS),7.07107,R,ugm-3,13.08546,R,ugm-3,23.92762,R,ugm-3,7.406,R,ugm-3 (Ref.eq)
06-01-2020,14:00,12.400,R,ugm-3 (FIDAS),6.02350,R,ugm-3,13.37922,R,ugm-3,22.61513,R,ugm-3,7.264,R,ugm-3 (Ref.eq)
06-01-2020,15:00,11.225,R,ugm-3 (FIDAS),6.05624,R,ugm-3,14.79295,R,ugm-3,24.07905,R,ugm-3,7.146,R,ugm-3 (Ref.eq)
06-01-2020,16:00,7.825,R,ugm-3 (FIDAS),10.41019,R,ugm-3,18.01111,R,ugm-3,33.97317,R,ugm-3,5.259,R,ugm-3 (Ref.eq)
06-01-2020,17:00,8.975,R,ugm-3 (FIDAS),11.98154,R,ugm-3,18.02479,R,ugm-3,36.39622,R,ugm-3,6.156,R,ugm-3 (Ref.eq)
06-01-2020,18:00,9.775,R,ugm-3 (FIDAS),13.06184,R,ugm-3,18.74092,R,ugm-3,38.76879,R,ugm-3,6.910,R,ugm-3 (Ref.eq)
06-01-2020,19:00,9.750,R,ugm-3 (FIDAS),10.86850,R,ugm-3,21.80112,R,ugm-3,38.46591,R,ugm-3,6.250,R,ugm-3 (Ref.eq)
06-01-2020,20:00,13.975,R,ugm-3 (FIDAS),6.41634,R,ugm-3,16.10857,R,ugm-3,25.94682,R,ugm-3,8.679,R,ugm-3 (Ref.eq)
06-01-2020,21:00,12.250,R,ugm-3 (FIDAS),7.16928,R,ugm-3,14.70168,R,ugm-3,25.69442,R,ugm-3,7.854,R,ugm-3 (Ref.eq)
06-01-2020,22:00,11.375,R,ugm-3 (FIDAS),5.82709,R,ugm-3,12.11550,R,ugm-3,21.05024,R,ugm-3,6.840,R,ugm-3 (Ref.eq)
06-01-2020,23:00,11.625,R,ugm-3 (FIDAS),1.47314,R,ugm-3,6.92861,R,ugm-3,9.18740,R,ugm-3,6.627,R,ugm-3 (Ref.eq)
06-01-2020,24:00,12.750,R,ugm-3 (FIDAS),2.09513,R,ugm-3,8.54940,R,ugm-3,11.76189,R,ugm-3,7.642,R,ugm-3 (Ref.eq)
07-01-2020,01:00,11.200,R,ugm-3 (FIDAS),0.75296,R,ugm-3,5.25943,R,ugm-3,6.41395,R,ugm-3,6.462,R,ugm-3 (Ref.eq)
07-01-2020,02:00,11.250,R,ugm-3 (FIDAS),1.74599,R,ugm-3,7.08686,R,ugm-3,9.76401,R,ugm-3,6.061,R,ugm-3 (Ref.eq)
07-01-2020,03:00,11.050,R,ugm-3 (FIDAS),0.45832,R,ugm-3,4.39810,R,ugm-3,5.10086,R,ugm-3,5.731,R,ugm-3 (Ref.eq)
07-01-2020,04:00,9.775,R,ugm-3 (FIDAS),0.52380,R,ugm-3,4.49973,R,ugm-3,5.30287,R,ugm-3,5.590,R,ugm-3 (Ref.eq)
07-01-2020,05:00,11.800,R,ugm-3 (FIDAS),1.50592,R,ugm-3,6.12505,R,ugm-3,8.43409,R,ugm-3,6.321,R,ugm-3 (Ref.eq)
07-01-2020,06:00,11.975,R,ugm-3 (FIDAS),3.33921,R,ugm-3,6.24324,R,ugm-3,11.36329,R,ugm-3,6.580,R,ugm-3 (Ref.eq)
07-01-2020,07:00,13.425,R,ugm-3 (FIDAS),7.59507,R,ugm-3,13.95968,R,ugm-3,25.60529,R,ugm-3,7.311,R,ugm-3 (Ref.eq)
07-01-2020,08:00,15.000,R,ugm-3 (FIDAS),8.51171,R,ugm-3,17.15000,R,ugm-3,30.20111,R,ugm-3,8.066,R,ugm-3 (Ref.eq)
07-01-2020,09:00,14.825,R,ugm-3 (FIDAS),19.34778,R,ugm-3,26.03922,R,ugm-3,55.70539,R,ugm-3,8.915,R,ugm-3 (Ref.eq)
07-01-2020,10:00,16.525,R,ugm-3 (FIDAS),15.87762,R,ugm-3,25.09762,R,ugm-3,49.44295,R,ugm-3,9.410,R,ugm-3 (Ref.eq)
07-01-2020,11:00,13.925,R,ugm-3 (FIDAS),12.04735,R,ugm-3,17.83970,R,ugm-3,36.31204,R,ugm-3,8.231,R,ugm-3 (Ref.eq)
07-01-2020,12:00,12.925,R,ugm-3 (FIDAS),11.45807,R,ugm-3,21.41992,R,ugm-3,38.98872,R,ugm-3,8.066,R,ugm-3 (Ref.eq)
07-01-2020,13:00,11.925,R,ugm-3 (FIDAS),14.69907,R,ugm-3,24.68254,R,ugm-3,47.22080,R,ugm-3,8.278,R,ugm-3 (Ref.eq)
07-01-2020,14:00,13.525,R,ugm-3 (FIDAS),7.13674,R,ugm-3,16.73308,R,ugm-3,27.67593,R,ugm-3,9.245,R,ugm-3 (Ref.eq)
07-01-2020,15:00,12.950,R,ugm-3 (FIDAS),5.53261,R,ugm-3,14.79891,R,ugm-3,23.28213,R,ugm-3,9.080,R,ugm-3 (Ref.eq)
07-01-2020,16:00,11.275,R,ugm-3 (FIDAS),9.85394,R,ugm-3,17.86964,R,ugm-3,32.97880,R,ugm-3,8.278,R,ugm-3 (Ref.eq)
07-01-2020,17:00,7.650,R,ugm-3 (FIDAS),9.39562,R,ugm-3,11.45139,R,ugm-3,25.85781,R,ugm-3,6.014,R,ugm-3 (Ref.eq)
07-01-2020,18:00,4.525,R,ugm-3 (FIDAS),7.75875,R,ugm-3,14.97129,R,ugm-3,26.86788,R,ugm-3,3.632,R,ugm-3 (Ref.eq)
07-01-2020,19:00,3.025,R,ugm-3 (FIDAS),4.64870,R,ugm-3,6.00301,R,ugm-3,13.13092,R,ugm-3,2.123,R,ugm-3 (Ref.eq)
07-01-2020,20:00,2.600,R,ugm-3 (FIDAS),2.91362,R,ugm-3,5.58271,R,ugm-3,10.05020,R,ugm-3,2.028,R,ugm-3 (Ref.eq)
07-01-2020,21:00,1.425,R,ugm-3 (FIDAS),1.76782,R,ugm-3,5.21844,R,ugm-3,7.92905,R,ugm-3,0.920,R,ugm-3 (Ref.eq)
07-01-2020,22:00,1.925,R,ugm-3 (FIDAS),1.86603,R,ugm-3,2.94670,R,ugm-3,5.80791,R,ugm-3,1.226,R,ugm-3 (Ref.eq)
07-01-2020,23:00,1.325,R,ugm-3 (FIDAS),1.14581,R,ugm-3,2.73793,R,ugm-3,4.49482,R,ugm-3,0.684,R,ugm-3 (Ref.eq)
07-01-2020,24:00,1.075,R,ugm-3 (FIDAS),0.75296,R,ugm-3,2.43123,R,ugm-3,3.58575,R,ugm-3,0.731,R,ugm-3 (Ref.eq)
08-01-2020,01:00,2.000,R,ugm-3 (FIDAS),0.74207,R,ugm-3,2.09590,R,ugm-3,3.23372,R,ugm-3,1.368,R,ugm-3 (Ref.eq)
08-01-2020,02:00,6.500,R,ugm-3 (FIDAS),0.43651,R,ugm-3,1.95809,R,ugm-3,2.62740,R,ugm-3,4.222,R,ugm-3 (Ref.eq)
08-01-2020,03:00,10.950,R,ugm-3 (FIDAS),0.45834,R,ugm-3,1.52041,R,ugm-3,2.22318,R,ugm-3,7.076,R,ugm-3 (Ref.eq)
08-01-2020,04:00,14.400,R,ugm-3 (FIDAS),0.58929,R,ugm-3,1.72383,R,ugm-3,2.62740,R,ugm-3,9.057,R,ugm-3 (Ref.eq)
08-01-2020,05:00,16.575,R,ugm-3 (FIDAS),1.21132,R,ugm-3,3.44800,R,ugm-3,5.30532,R,ugm-3,10.283,R,ugm-3 (Ref.eq)
08-01-2020,06:00,18.575,R,ugm-3 (FIDAS),2.52085,R,ugm-3,5.73486,R,ugm-3,9.60010,R,ugm-3,10.613,R,ugm-3 (Ref.eq)
08-01-2020,07:00,15.375,R,ugm-3 (FIDAS),3.69942,R,ugm-3,9.88990,R,ugm-3,15.56227,R,ugm-3,8.962,R,ugm-3 (Ref.eq)
08-01-2020,08:00,15.125,R,ugm-3 (FIDAS),6.51492,R,ugm-3,13.45507,R,ugm-3,23.44446,R,ugm-3,7.901,R,ugm-3 (Ref.eq)
08-01-2020,09:00,16.725,R,ugm-3 (FIDAS),17.84236,R,ugm-3,31.10168,R,ugm-3,58.45957,R,ugm-3,7.618,R,ugm-3 (Ref.eq)
08-01-2020,10:00,19.100,R,ugm-3 (FIDAS),18.88998,R,ugm-3,39.19650,R,ugm-3,68.16073,R,ugm-3,8.585,R,ugm-3 (Ref.eq)
08-01-2020,11:00,23.725,R,ugm-3 (FIDAS),17.67866,R,ugm-3,37.41589,R,ugm-3,64.52280,R,ugm-3,9.693,R,ugm-3 (Ref.eq)
08-01-2020,12:00,20.600,R,ugm-3 (FIDAS),15.22329,R,ugm-3,28.24586,R,ugm-3,51.58792,R,ugm-3,8.939,R,ugm-3 (Ref.eq)
08-01-2020,13:00,21.275,R,ugm-3 (FIDAS),15.55068,R,ugm-3,24.81333,R,ugm-3,48.65736,R,ugm-3,8.892,R,ugm-3 (Ref.eq)
08-01-2020,14:00,24.250,R,ugm-3 (FIDAS),22.94952,R,ugm-3,31.91089,R,ugm-3,67.09967,R,ugm-3,9.458,R,ugm-3 (Ref.eq)
08-01-2020,15:00,23.175,R,ugm-3 (FIDAS),35.91388,R,ugm-3,63.31725,R,ugm-3,118.38443,R,ugm-3,10.283,R,ugm-3 (Ref.eq)
08-01-2020,16:00,24.225,R,ugm-3 (FIDAS),46.52108,R,ugm-3,54.12686,R,ugm-3,125.45819,R,ugm-3,11.439,R,ugm-3 (Ref.eq)
08-01-2020,17:00,30.450,R,ugm-3 (FIDAS),43.44368,R,ugm-3,53.23699,R,ugm-3,119.84970,R,ugm-3,13.962,R,ugm-3 (Ref.eq)
08-01-2020,18:00,26.800,R,ugm-3 (FIDAS),26.84538,R,ugm-3,38.72062,R,ugm-3,79.88296,R,ugm-3,14.788,R,ugm-3 (Ref.eq)
08-01-2020,19:00,28.650,R,ugm-3 (FIDAS),17.48223,R,ugm-3,31.90649,R,ugm-3,58.71221,R,ugm-3,14.670,R,ugm-3 (Ref.eq)
08-01-2020,20:00,25.125,R,ugm-3 (FIDAS),9.49410,R,ugm-3,28.84516,R,ugm-3,43.40257,R,ugm-3,14.882,R,ugm-3 (Ref.eq)
08-01-2020,21:00,29.550,R,ugm-3 (FIDAS),10.08339,R,ugm-3,47.95023,R,ugm-3,63.41121,R,ugm-3,19.340,R,ugm-3 (Ref.eq)
08-01-2020,22:00,23.175,R,ugm-3 (FIDAS),6.90777,R,ugm-3,41.60247,R,ugm-3,52.19424,R,ugm-3,15.660,R,ugm-3 (Ref.eq)
08-01-2020,23:00,12.425,R,ugm-3 (FIDAS),3.83038,R,ugm-3,29.34406,R,ugm-3,35.21722,R,ugm-3,9.764,R,ugm-3 (Ref.eq)
08-01-2020,24:00,8.650,R,ugm-3 (FIDAS),2.45537,R,ugm-3,20.94279,R,ugm-3,24.70763,R,ugm-3,6.792,R,ugm-3 (Ref.eq)
09-01-2020,01:00,5.875,R,ugm-3 (FIDAS),0.82939,R,ugm-3,14.02814,R,ugm-3,15.29986,R,ugm-3,4.835,R,ugm-3 (Ref.eq)
09-01-2020,02:00,3.150,R,ugm-3 (FIDAS),0.21826,R,ugm-3,5.59656,R,ugm-3,5.93122,R,ugm-3,2.359,R,ugm-3 (Ref.eq)
09-01-2020,03:00,2.725,R,ugm-3 (FIDAS),0.36013,R,ugm-3,11.27655,R,ugm-3,11.82874,R,ugm-3,2.099,R,ugm-3 (Ref.eq)
09-01-2020,04:00,2.000,R,ugm-3 (FIDAS),0.62205,R,ugm-3,13.04861,R,ugm-3,14.00240,R,ugm-3,1.557,R,ugm-3 (Ref.eq)
09-01-2020,05:00,2.225,R,ugm-3 (FIDAS),1.86613,R,ugm-3,11.34324,R,ugm-3,14.20460,R,ugm-3,1.604,R,ugm-3 (Ref.eq)
09-01-2020,06:00,3.475,R,ugm-3 (FIDAS),5.79484,R,ugm-3,17.14806,R,ugm-3,26.03335,R,ugm-3,2.146,R,ugm-3 (Ref.eq)
09-01-2020,07:00,3.875,R,ugm-3 (FIDAS),10.05093,R,ugm-3,22.60253,R,ugm-3,38.01374,R,ugm-3,2.264,R,ugm-3 (Ref.eq)
09-01-2020,08:00,9.025,R,ugm-3 (FIDAS),6.67879,R,ugm-3,10.88931,R,ugm-3,21.12998,R,ugm-3,4.976,R,ugm-3 (Ref.eq)
09-01-2020,09:00,8.950,R,ugm-3 (FIDAS),16.04220,R,ugm-3,14.52815,R,ugm-3,39.12585,R,ugm-3,5.307,R,ugm-3 (Ref.eq)
09-01-2020,10:00,4.425,R,ugm-3 (FIDAS),14.99455,R,ugm-3,17.14553,R,ugm-3,40.13685,R,ugm-3,2.524,R,ugm-3 (Ref.eq)
09-01-2020,11:00,3.100,R,ugm-3 (FIDAS),17.25355,R,ugm-3,14.23783,R,ugm-3,40.69290,R,ugm-3,2.170,R,ugm-3 (Ref.eq)
09-01-2020,12:00,6.475,R,ugm-3 (FIDAS),11.16406,R,ugm-3,13.51543,R,ugm-3,30.63341,R,ugm-3,3.915,R,ugm-3 (Ref.eq)
09-01-2020,13:00,10.625,R,ugm-3 (FIDAS),14.43798,R,ugm-3,21.08248,R,ugm-3,43.22041,R,ugm-3,4.717,R,ugm-3 (Ref.eq)
09-01-2020,14:00,7.175,R,ugm-3 (FIDAS),7.23536,R,ugm-3,13.37223,R,ugm-3,24.46629,R,ugm-3,3.915,R,ugm-3 (Ref.eq)
09-01-2020,15:00,8.125,R,ugm-3 (FIDAS),13.48854,R,ugm-3,18.03930,R,ugm-3,38.72144,R,ugm-3,3.986,R,ugm-3 (Ref.eq)
09-01-2020,16:00,10.475,R,ugm-3 (FIDAS),6.54784,R,ugm-3,23.12105,R,ugm-3,33.16092,R,ugm-3,7.264,R,ugm-3 (Ref.eq)
09-01-2020,17:00,7.200,R,ugm-3 (FIDAS),10.70571,R,ugm-3,28.17007,R,ugm-3,44.58526,R,ugm-3,4.575,R,ugm-3 (Ref.eq)
09-01-2020,18:00,13.975,R,ugm-3 (FIDAS),33.88505,R,ugm-3,39.08453,R,ugm-3,91.04089,R,ugm-3,6.887,R,ugm-3 (Ref.eq)